START_TIME,STEP,MOV.,P11,t_acc.,P23,t_acc.,P27,t_acc.,A4,t_acc.
1980-11-14 06:00:11.670 ,5,0,0.,4.8,0.,4.8,0.,4.8,0.,4.8
1980-11-14 06:00:16.470 ,5,0,0.,4.8,0.,4.8,0.,4.8,0.,4.8
1980-11-14 06:00:21.270 ,5,0,1.,4.8,0.,4.8,0.,4.8,0.,4.8
1980-11-14 06:00:26.070 ,5,0,0.,4.8,0.,4.8,0.,4.8,1.,4.8
1980-11-14 06:00:30.870 ,5,0,0.,4.8,0.,4.8,0.,4.8,0.,4.8
1980-11-14 06:00:35.670 ,6,0,1.,4.8,0.,4.8,0.,4.8,0.,4.8
1980-11-14 06:00:40.470 ,6,0,0.,4.8,0.,4.8,0.,4.8,0.,4.8
1980-11-14 06:00:45.270 ,6,0,0.,4.8,0.,4.8,0.,4.8,0.,4.8
1980-11-14 06:00:50.070 ,6,0,0.,4.8,0.,4.8,0.,4.8,0.,4.8
1980-11-14 06:00:54.870 ,6,0,0.,4.8,0.,4.8,0.,4.8,0.,4.8
1980-11-14 06:00:59.670 ,6,0,1.,4.8,0.,4.8,0.,4.8,0.,4.8
1980-11-14 06:01:04.470 ,6,0,0.,4.8,0.,4.8,0.,4.8,0.,4.8
1980-11-14 06:01:09.270 ,6,0,1.,4.8,0.,4.8,0.,4.8,0.,4.8
1980-11-14 06:01:14.070 ,6,0,0.,4.8,0.,4.8,0.,4.8,0.,4.8
1980-11-14 06:01:18.870 ,6,0,0.,4.8,0.,4.8,0.,4.8,0.,4.8
1980-11-14 06:01:23.670 ,7,0,0.,4.8,0.,4.8,0.,4.8,0.,4.8
1980-11-14 06:01:28.470 ,7,0,0.,4.8,0.,4.8,0.,4.8,0.,4.8
1980-11-14 06:01:33.270 ,7,0,3.,4.8,0.,4.8,0.,4.8,0.,4.8
1980-11-14 06:01:38.070 ,7,0,0.,4.8,0.,4.8,1.,4.8,0.,4.8
1980-11-14 06:01:42.870 ,7,0,2.,4.8,0.,4.8,1.,4.8,0.,4.8
1980-11-14 06:01:47.670 ,7,0,0.,4.8,0.,4.8,0.,4.8,0.,4.8
1980-11-14 06:01:52.470 ,7,0,0.,4.8,0.,4.8,1.,4.8,0.,4.8
1980-11-14 06:01:57.270 ,7,0,0.,4.8,0.,4.8,1.,4.8,0.,4.8
1980-11-14 06:02:02.070 ,7,0,0.,4.8,0.,4.8,0.,4.8,0.,4.8
1980-11-14 06:02:06.870 ,7,0,0.,4.8,1.,4.8,0.,4.8,0.,4.8
1980-11-14 06:02:11.670 ,7,0,1.,4.8,0.,4.8,0.,4.8,0.,4.8
1980-11-14 06:02:16.470 ,7,0,2.,4.8,0.,4.8,0.,4.8,0.,4.8
1980-11-14 06:02:21.270 ,7,0,0.,4.8,0.,4.8,1.,4.8,0.,4.8
1980-11-14 06:02:26.070 ,7,0,0.,4.8,0.,4.8,0.,4.8,0.,4.8
1980-11-14 06:02:30.870 ,7,0,1.,4.8,0.,4.8,0.,4.8,0.,4.8
1980-11-14 06:02:35.670 ,7,0,0.,4.8,0.,4.8,0.,4.8,0.,4.8
1980-11-14 06:02:40.470 ,7,0,1.,4.8,0.,4.8,0.,4.8,0.,4.8
1980-11-14 06:02:45.270 ,7,0,2.,4.8,0.,4.8,0.,4.8,0.,4.8
1980-11-14 06:02:50.070 ,7,0,0.,4.8,0.,4.8,0.,4.8,0.,4.8
1980-11-14 06:02:54.870 ,7,0,0.,4.8,0.,4.8,0.,4.8,0.,4.8
1980-11-14 06:02:59.670 ,6,0,0.,4.8,0.,4.8,0.,4.8,0.,4.8
1980-11-14 06:03:04.470 ,6,0,0.,4.8,0.,4.8,0.,4.8,0.,4.8
1980-11-14 06:03:09.270 ,6,0,0.,4.8,0.,4.8,0.,4.8,0.,4.8
1980-11-14 06:03:14.070 ,6,0,0.,4.8,0.,4.8,0.,4.8,0.,4.8
1980-11-14 06:03:18.870 ,6,0,0.,4.8,0.,4.8,0.,4.8,0.,4.8
1980-11-14 06:03:23.670 ,6,0,1.,4.8,0.,4.8,0.,4.8,0.,4.8
1980-11-14 06:03:28.470 ,6,0,0.,4.8,0.,4.8,0.,4.8,0.,4.8
1980-11-14 06:03:33.270 ,6,0,0.,4.8,0.,4.8,0.,4.8,0.,4.8
1980-11-14 06:03:38.070 ,6,0,0.,4.8,0.,4.8,0.,4.8,0.,4.8
1980-11-14 06:03:42.870 ,6,0,1.,4.8,0.,4.8,0.,4.8,0.,4.8
1980-11-14 06:03:47.670 ,5,0,0.,4.8,0.,4.8,0.,4.8,0.,4.8
1980-11-14 06:03:52.470 ,5,0,0.,4.8,0.,4.8,0.,4.8,0.,4.8
1980-11-14 06:03:57.270 ,5,0,1.,4.8,0.,4.8,0.,4.8,0.,4.8
1980-11-14 06:04:02.070 ,5,0,0.,4.8,0.,4.8,0.,4.8,0.,4.8
1980-11-14 06:04:06.870 ,5,0,0.,4.8,0.,4.8,1.,4.8,0.,4.8
1980-11-14 06:04:11.670 ,5,0,1.,4.8,0.,4.8,0.,4.8,0.,4.8
1980-11-14 06:04:16.470 ,5,0,0.,4.8,0.,4.8,0.,4.8,0.,4.8
1980-11-14 06:04:21.270 ,5,0,0.,4.8,0.,4.8,0.,4.8,0.,4.8
1980-11-14 06:04:26.070 ,5,0,0.,4.8,0.,4.8,0.,4.8,0.,4.8
1980-11-14 06:04:30.870 ,5,0,0.,4.8,0.,4.8,0.,4.8,0.,4.8
1980-11-14 06:04:35.670 ,4,0,1.,4.8,0.,4.8,0.,4.8,0.,4.8
1980-11-14 06:04:40.470 ,4,0,1.,4.8,0.,4.8,0.,4.8,0.,4.8
1980-11-14 06:04:45.270 ,4,0,1.,4.8,0.,4.8,0.,4.8,0.,4.8
1980-11-14 06:04:50.070 ,4,0,1.,4.8,0.,4.8,0.,4.8,0.,4.8
1980-11-14 06:04:54.870 ,4,0,0.,4.8,0.,4.8,0.,4.8,0.,4.8
1980-11-14 06:04:59.670 ,4,0,0.,4.8,0.,4.8,0.,4.8,0.,4.8
1980-11-14 06:05:04.470 ,4,0,0.,4.8,0.,4.8,0.,4.8,0.,4.8
1980-11-14 06:05:09.270 ,4,0,0.,4.8,0.,4.8,0.,4.8,0.,4.8
1980-11-14 06:05:14.070 ,4,0,0.,4.8,1.,4.8,0.,4.8,0.,4.8
1980-11-14 06:05:18.870 ,4,0,0.,4.8,0.,4.8,0.,4.8,0.,4.8
1980-11-14 06:05:23.670 ,3,0,0.,4.8,0.,4.8,0.,4.8,0.,4.8
1980-11-14 06:05:28.470 ,3,0,2.,4.8,0.,4.8,1.,4.8,0.,4.8
1980-11-14 06:05:33.270 ,3,0,0.,4.8,0.,4.8,0.,4.8,0.,4.8
1980-11-14 06:05:38.070 ,3,0,1.,4.8,0.,4.8,0.,4.8,0.,4.8
1980-11-14 06:05:42.870 ,3,0,1.,4.8,0.,4.8,0.,4.8,0.,4.8
1980-11-14 06:05:47.670 ,3,0,0.,4.8,0.,4.8,0.,4.8,0.,4.8
1980-11-14 06:05:52.470 ,3,0,0.,4.8,0.,4.8,0.,4.8,0.,4.8
1980-11-14 06:05:57.270 ,3,0,3.,4.8,0.,4.8,1.,4.8,0.,4.8
1980-11-14 06:06:02.070 ,3,0,1.,4.8,0.,4.8,0.,4.8,0.,4.8
1980-11-14 06:06:06.870 ,3,0,0.,4.8,1.,4.8,0.,4.8,0.,4.8
1980-11-14 06:06:11.670 ,2,0,0.,4.8,0.,4.8,0.,4.8,0.,4.8
1980-11-14 06:06:16.470 ,2,0,0.,4.8,0.,4.8,0.,4.8,0.,4.8
1980-11-14 06:06:21.270 ,2,0,1.,4.8,0.,4.8,0.,4.8,0.,4.8
1980-11-14 06:06:26.070 ,2,0,1.,4.8,0.,4.8,0.,4.8,0.,4.8
1980-11-14 06:06:30.870 ,2,0,0.,4.8,0.,4.8,0.,4.8,0.,4.8
1980-11-14 06:06:35.670 ,2,0,1.,4.8,0.,4.8,0.,4.8,0.,4.8
1980-11-14 06:06:40.470 ,2,0,0.,4.8,0.,4.8,0.,4.8,0.,4.8
1980-11-14 06:06:45.270 ,2,0,0.,4.8,0.,4.8,0.,4.8,0.,4.8
1980-11-14 06:06:50.070 ,2,0,0.,4.8,0.,4.8,0.,4.8,0.,4.8
1980-11-14 06:06:54.870 ,2,0,0.,4.8,0.,4.8,0.,4.8,0.,4.8
1980-11-14 06:06:59.670 ,1,0,0.,4.8,0.,4.8,0.,4.8,0.,4.8
1980-11-14 06:07:04.470 ,1,0,1.,4.8,0.,4.8,0.,4.8,0.,4.8
1980-11-14 06:07:09.270 ,1,0,0.,4.8,0.,4.8,0.,4.8,0.,4.8
1980-11-14 06:07:14.070 ,1,0,1.,4.8,0.,4.8,0.,4.8,0.,4.8
1980-11-14 06:07:18.870 ,1,0,0.,4.8,0.,4.8,0.,4.8,0.,4.8
1980-11-14 06:07:23.670 ,1,0,0.,4.8,1.,4.8,0.,4.8,0.,4.8
1980-11-14 06:07:28.470 ,1,0,1.,4.8,0.,4.8,0.,4.8,0.,4.8
1980-11-14 06:07:33.270 ,1,0,0.,4.8,0.,4.8,0.,4.8,0.,4.8
1980-11-14 06:07:38.070 ,1,0,2.,4.8,0.,4.8,0.,4.8,0.,4.8
1980-11-14 06:07:42.870 ,1,0,0.,4.8,0.,4.8,0.,4.8,0.,4.8
1980-11-14 06:07:47.670 ,0,0,1.,4.8,0.,4.8,0.,4.8,0.,4.8
1980-11-14 06:07:52.470 ,0,0,1.,4.8,0.,4.8,0.,4.8,0.,4.8
1980-11-14 06:07:57.270 ,0,0,0.,4.8,0.,4.8,0.,4.8,0.,4.8
1980-11-14 06:08:02.070 ,0,0,1.,4.8,0.,4.8,0.,4.8,0.,4.8
1980-11-14 06:08:06.870 ,0,0,0.,4.8,0.,4.8,0.,4.8,0.,4.8
1980-11-14 06:08:11.670 ,0,0,0.,4.8,0.,4.8,0.,4.8,0.,4.8
1980-11-14 06:08:16.470 ,0,0,0.,4.8,0.,4.8,0.,4.8,0.,4.8
1980-11-14 06:08:21.270 ,0,0,0.,4.8,0.,4.8,0.,4.8,0.,4.8
1980-11-14 06:08:26.070 ,0,0,0.,4.8,0.,4.8,0.,4.8,0.,4.8
1980-11-14 06:08:30.870 ,0,0,0.,4.8,0.,4.8,0.,4.8,0.,4.8
1980-11-14 06:08:35.670 ,0,0,1.,4.8,0.,4.8,0.,4.8,0.,4.8
1980-11-14 06:08:40.470 ,0,0,1.,4.8,0.,4.8,0.,4.8,0.,4.8
1980-11-14 06:08:45.270 ,0,0,1.,4.8,0.,4.8,1.,4.8,0.,4.8
1980-11-14 06:08:50.070 ,0,0,1.,4.8,0.,4.8,0.,4.8,0.,4.8
1980-11-14 06:08:54.870 ,0,0,0.,4.8,0.,4.8,0.,4.8,0.,4.8
1980-11-14 06:08:59.670 ,0,0,1.,4.8,0.,4.8,0.,4.8,0.,4.8
1980-11-14 06:09:04.470 ,0,0,0.,4.8,0.,4.8,0.,4.8,0.,4.8
1980-11-14 06:09:09.270 ,0,0,0.,4.8,0.,4.8,0.,4.8,0.,4.8
1980-11-14 06:09:14.070 ,0,0,1.,4.8,0.,4.8,0.,4.8,0.,4.8
1980-11-14 06:09:18.870 ,0,0,1.,4.8,0.,4.8,0.,4.8,0.,4.8
1980-11-14 06:09:23.670 ,1,0,0.,4.8,0.,4.8,0.,4.8,0.,4.8
1980-11-14 06:09:28.470 ,1,0,0.,4.8,0.,4.8,0.,4.8,0.,4.8
1980-11-14 06:09:33.270 ,1,0,0.,4.8,0.,4.8,0.,4.8,0.,4.8
1980-11-14 06:09:38.070 ,1,0,0.,4.8,0.,4.8,0.,4.8,0.,4.8
1980-11-14 06:09:42.870 ,1,0,0.,4.8,0.,4.8,0.,4.8,0.,4.8
1980-11-14 06:09:47.670 ,1,0,1.,4.8,0.,4.8,0.,4.8,0.,4.8
1980-11-14 06:09:52.470 ,1,0,0.,4.8,0.,4.8,0.,4.8,0.,4.8
1980-11-14 06:09:57.270 ,1,0,1.,4.8,0.,4.8,0.,4.8,0.,4.8
1980-11-14 06:10:02.070 ,1,0,0.,4.8,0.,4.8,0.,4.8,0.,4.8
1980-11-14 06:10:06.870 ,1,0,1.,4.8,0.,4.8,0.,4.8,0.,4.8
1980-11-14 06:10:11.670 ,2,0,0.,4.8,0.,4.8,0.,4.8,0.,4.8
1980-11-14 06:10:16.470 ,2,0,1.,4.8,0.,4.8,0.,4.8,0.,4.8
1980-11-14 06:10:21.270 ,2,0,0.,4.8,0.,4.8,2.,4.8,0.,4.8
1980-11-14 06:10:26.070 ,2,0,0.,4.8,1.,4.8,0.,4.8,0.,4.8
1980-11-14 06:10:30.870 ,2,0,1.,4.8,0.,4.8,0.,4.8,0.,4.8
1980-11-14 06:10:35.670 ,2,0,1.,4.8,0.,4.8,0.,4.8,0.,4.8
1980-11-14 06:10:40.470 ,2,0,0.,4.8,0.,4.8,0.,4.8,0.,4.8
1980-11-14 06:10:45.270 ,2,0,1.,4.8,0.,4.8,0.,4.8,0.,4.8
1980-11-14 06:10:50.070 ,2,0,1.,4.8,0.,4.8,0.,4.8,0.,4.8
1980-11-14 06:10:54.870 ,2,0,0.,4.8,0.,4.8,0.,4.8,0.,4.8
1980-11-14 06:10:59.670 ,3,0,0.,4.8,0.,4.8,0.,4.8,0.,4.8
1980-11-14 06:11:04.470 ,3,0,0.,4.8,0.,4.8,0.,4.8,0.,4.8
1980-11-14 06:11:09.270 ,3,0,1.,4.8,0.,4.8,0.,4.8,0.,4.8
1980-11-14 06:11:14.070 ,3,0,0.,4.8,0.,4.8,0.,4.8,0.,4.8
1980-11-14 06:11:18.870 ,3,0,1.,4.8,0.,4.8,0.,4.8,0.,4.8
1980-11-14 06:11:23.670 ,3,0,0.,4.8,0.,4.8,1.,4.8,0.,4.8
1980-11-14 06:11:28.470 ,3,0,0.,4.8,0.,4.8,0.,4.8,0.,4.8
1980-11-14 06:11:33.270 ,3,0,1.,4.8,0.,4.8,0.,4.8,0.,4.8
1980-11-14 06:11:38.070 ,3,0,0.,4.8,0.,4.8,0.,4.8,0.,4.8
1980-11-14 06:11:42.870 ,3,0,0.,4.8,0.,4.8,0.,4.8,0.,4.8
1980-11-14 06:11:47.670 ,4,0,1.,4.8,0.,4.8,0.,4.8,1.,4.8
1980-11-14 06:11:52.470 ,4,0,0.,4.8,0.,4.8,0.,4.8,0.,4.8
1980-11-14 06:11:57.270 ,4,0,0.,4.8,0.,4.8,0.,4.8,0.,4.8
1980-11-14 06:12:02.070 ,4,0,3.,4.8,0.,4.8,0.,4.8,0.,4.8
1980-11-14 06:12:06.870 ,4,0,1.,4.8,0.,4.8,0.,4.8,0.,4.8
1980-11-14 06:12:11.670 ,4,0,1.,4.8,0.,4.8,0.,4.8,0.,4.8
1980-11-14 06:12:16.470 ,4,0,0.,4.8,0.,4.8,0.,4.8,0.,4.8
1980-11-14 06:12:21.270 ,4,0,0.,4.8,0.,4.8,0.,4.8,0.,4.8
1980-11-14 06:12:26.070 ,4,0,0.,4.8,0.,4.8,0.,4.8,0.,4.8
1980-11-14 06:12:30.870 ,4,0,1.,4.8,0.,4.8,0.,4.8,0.,4.8
1980-11-14 06:12:35.670 ,5,0,1.,4.8,0.,4.8,0.,4.8,0.,4.8
1980-11-14 06:12:40.470 ,5,0,1.,4.8,0.,4.8,0.,4.8,0.,4.8
1980-11-14 06:12:45.270 ,5,0,1.,4.8,0.,4.8,0.,4.8,0.,4.8
1980-11-14 06:12:50.070 ,5,0,0.,4.8,0.,4.8,0.,4.8,0.,4.8
1980-11-14 06:12:54.870 ,5,0,0.,4.8,0.,4.8,0.,4.8,0.,4.8
1980-11-14 06:12:59.670 ,5,0,0.,4.8,1.,4.8,0.,4.8,0.,4.8
1980-11-14 06:13:04.470 ,5,0,0.,4.8,0.,4.8,0.,4.8,0.,4.8
1980-11-14 06:13:09.270 ,5,0,0.,4.8,0.,4.8,0.,4.8,0.,4.8
1980-11-14 06:13:14.070 ,5,0,0.,4.8,0.,4.8,0.,4.8,0.,4.8
1980-11-14 06:13:18.870 ,5,0,0.,4.8,0.,4.8,0.,4.8,0.,4.8
1980-11-14 06:13:23.670 ,6,0,1.,4.8,0.,4.8,0.,4.8,0.,4.8
1980-11-14 06:13:28.470 ,6,0,0.,4.8,1.,4.8,0.,4.8,0.,4.8
1980-11-14 06:13:33.270 ,6,0,0.,4.8,0.,4.8,0.,4.8,0.,4.8
1980-11-14 06:13:38.070 ,6,0,0.,4.8,0.,4.8,0.,4.8,0.,4.8
1980-11-14 06:13:42.870 ,6,0,1.,4.8,0.,4.8,0.,4.8,0.,4.8
1980-11-14 06:13:47.670 ,6,0,0.,4.8,0.,4.8,0.,4.8,0.,4.8
1980-11-14 06:13:52.470 ,6,0,0.,4.8,0.,4.8,0.,4.8,0.,4.8
1980-11-14 06:13:57.270 ,6,0,0.,4.8,0.,4.8,0.,4.8,0.,4.8
1980-11-14 06:14:02.070 ,6,0,1.,4.8,0.,4.8,1.,4.8,0.,4.8
1980-11-14 06:14:06.870 ,6,0,0.,4.8,0.,4.8,0.,4.8,0.,4.8
1980-11-14 06:14:11.670 ,7,0,0.,4.8,0.,4.8,0.,4.8,0.,4.8
1980-11-14 06:14:16.470 ,7,0,0.,4.8,0.,4.8,0.,4.8,0.,4.8
1980-11-14 06:14:21.270 ,7,0,1.,4.8,0.,4.8,0.,4.8,0.,4.8
1980-11-14 06:14:26.070 ,7,0,0.,4.8,0.,4.8,0.,4.8,0.,4.8
1980-11-14 06:14:30.870 ,7,0,0.,4.8,0.,4.8,0.,4.8,0.,4.8
1980-11-14 06:14:35.670 ,7,0,1.,4.8,0.,4.8,1.,4.8,0.,4.8
1980-11-14 06:14:40.470 ,7,0,1.,4.8,0.,4.8,0.,4.8,0.,4.8
1980-11-14 06:14:45.270 ,7,0,0.,4.8,0.,4.8,0.,4.8,0.,4.8
1980-11-14 06:14:50.070 ,7,0,0.,4.8,0.,4.8,0.,4.8,0.,4.8
1980-11-14 06:14:54.870 ,7,0,0.,4.8,1.,4.8,0.,4.8,0.,4.8
1980-11-14 06:14:59.670 ,7,0,0.,4.8,0.,4.8,0.,4.8,0.,4.8
1980-11-14 06:15:04.470 ,7,0,1.,4.8,0.,4.8,0.,4.8,0.,4.8
1980-11-14 06:15:09.270 ,7,0,0.,4.8,0.,4.8,0.,4.8,0.,4.8
1980-11-14 06:15:14.070 ,7,0,0.,4.8,0.,4.8,0.,4.8,0.,4.8
1980-11-14 06:15:18.870 ,7,0,2.,4.8,0.,4.8,1.,4.8,0.,4.8
1980-11-14 06:15:23.670 ,7,0,2.,4.8,0.,4.8,0.,4.8,0.,4.8
1980-11-14 06:15:28.470 ,7,0,1.,4.8,0.,4.8,0.,4.8,0.,4.8
1980-11-14 06:15:33.270 ,7,0,2.,4.8,0.,4.8,0.,4.8,0.,4.8
1980-11-14 06:15:38.070 ,7,0,1.,4.8,1.,4.8,0.,4.8,0.,4.8
1980-11-14 06:15:42.870 ,7,0,1.,4.8,0.,4.8,0.,4.8,0.,4.8
1980-11-14 06:15:47.670 ,6,0,1.,4.8,0.,4.8,1.,4.8,0.,4.8
1980-11-14 06:15:52.470 ,6,0,0.,4.8,0.,4.8,0.,4.8,0.,4.8
1980-11-14 06:15:57.270 ,6,0,0.,4.8,0.,4.8,0.,4.8,0.,4.8
1980-11-14 06:16:02.070 ,6,0,0.,4.8,0.,4.8,1.,4.8,0.,4.8
1980-11-14 06:16:06.870 ,6,0,1.,4.8,0.,4.8,0.,4.8,0.,4.8
1980-11-14 06:16:11.670 ,6,0,0.,4.8,0.,4.8,0.,4.8,0.,4.8
1980-11-14 06:16:16.470 ,6,0,0.,4.8,0.,4.8,0.,4.8,0.,4.8
1980-11-14 06:16:21.270 ,6,0,0.,4.8,0.,4.8,1.,4.8,0.,4.8
1980-11-14 06:16:26.070 ,6,0,0.,4.8,0.,4.8,0.,4.8,0.,4.8
1980-11-14 06:16:30.870 ,6,0,1.,4.8,0.,4.8,0.,4.8,0.,4.8
1980-11-14 06:16:35.670 ,5,0,0.,4.8,0.,4.8,0.,4.8,0.,4.8
1980-11-14 06:16:40.470 ,5,0,1.,4.8,0.,4.8,0.,4.8,0.,4.8
1980-11-14 06:16:45.270 ,5,0,1.,4.8,0.,4.8,0.,4.8,0.,4.8
1980-11-14 06:16:50.070 ,5,0,0.,4.8,0.,4.8,0.,4.8,0.,4.8
1980-11-14 06:16:54.870 ,5,0,0.,4.8,0.,4.8,0.,4.8,0.,4.8
1980-11-14 06:16:59.670 ,5,0,2.,4.8,0.,4.8,0.,4.8,0.,4.8
1980-11-14 06:17:04.470 ,5,0,0.,4.8,0.,4.8,0.,4.8,0.,4.8
1980-11-14 06:17:09.270 ,5,0,0.,4.8,0.,4.8,0.,4.8,0.,4.8
1980-11-14 06:17:14.070 ,5,0,1.,4.8,0.,4.8,0.,4.8,0.,4.8
1980-11-14 06:17:18.870 ,5,0,0.,4.8,0.,4.8,0.,4.8,0.,4.8
1980-11-14 06:17:23.670 ,4,0,0.,4.8,0.,4.8,0.,4.8,0.,4.8
1980-11-14 06:17:28.470 ,4,0,0.,4.8,0.,4.8,0.,4.8,0.,4.8
1980-11-14 06:17:33.270 ,4,0,0.,4.8,0.,4.8,0.,4.8,0.,4.8
1980-11-14 06:17:38.070 ,4,0,0.,4.8,0.,4.8,0.,4.8,0.,4.8
1980-11-14 06:17:42.870 ,4,0,0.,4.8,0.,4.8,0.,4.8,0.,4.8
1980-11-14 06:17:47.670 ,4,0,0.,4.8,0.,4.8,0.,4.8,0.,4.8
1980-11-14 06:17:52.470 ,4,0,1.,4.8,0.,4.8,0.,4.8,0.,4.8
1980-11-14 06:17:57.270 ,4,0,0.,4.8,0.,4.8,0.,4.8,0.,4.8
1980-11-14 06:18:02.070 ,4,0,0.,4.8,0.,4.8,0.,4.8,0.,4.8
1980-11-14 06:18:06.870 ,4,0,1.,4.8,0.,4.8,0.,4.8,0.,4.8
1980-11-14 06:18:11.670 ,3,0,2.,4.8,0.,4.8,0.,4.8,0.,4.8
1980-11-14 06:18:16.470 ,3,0,0.,4.8,0.,4.8,0.,4.8,0.,4.8
1980-11-14 06:18:21.270 ,3,0,0.,4.8,1.,4.8,0.,4.8,0.,4.8
1980-11-14 06:18:26.070 ,3,0,1.,4.8,0.,4.8,0.,4.8,0.,4.8
1980-11-14 06:18:30.870 ,3,0,0.,4.8,0.,4.8,0.,4.8,0.,4.8
1980-11-14 06:18:35.670 ,3,0,0.,4.8,0.,4.8,0.,4.8,1.,4.8
1980-11-14 06:18:40.470 ,3,0,1.,4.8,0.,4.8,0.,4.8,0.,4.8
1980-11-14 06:18:45.270 ,3,0,0.,4.8,0.,4.8,1.,4.8,0.,4.8
1980-11-14 06:18:50.070 ,3,0,1.,4.8,0.,4.8,0.,4.8,0.,4.8
1980-11-14 06:18:54.870 ,3,0,0.,4.8,0.,4.8,0.,4.8,0.,4.8
1980-11-14 06:18:59.670 ,2,0,1.,4.8,0.,4.8,0.,4.8,0.,4.8
1980-11-14 06:19:04.470 ,2,0,0.,4.8,0.,4.8,0.,4.8,0.,4.8
1980-11-14 06:19:09.270 ,2,0,0.,4.8,0.,4.8,0.,4.8,0.,4.8
1980-11-14 06:19:14.070 ,2,0,0.,4.8,0.,4.8,0.,4.8,0.,4.8
1980-11-14 06:19:18.870 ,2,0,0.,4.8,0.,4.8,0.,4.8,0.,4.8
1980-11-14 06:19:23.670 ,2,0,2.,4.8,0.,4.8,0.,4.8,0.,4.8
1980-11-14 06:19:28.470 ,2,0,0.,4.8,0.,4.8,0.,4.8,0.,4.8
1980-11-14 06:19:33.270 ,2,0,1.,4.8,0.,4.8,0.,4.8,0.,4.8
1980-11-14 06:19:38.070 ,2,0,0.,4.8,0.,4.8,0.,4.8,0.,4.8
1980-11-14 06:19:42.870 ,2,0,1.,4.8,0.,4.8,0.,4.8,0.,4.8
1980-11-14 06:19:47.670 ,1,0,1.,4.8,0.,4.8,0.,4.8,0.,4.8
1980-11-14 06:19:52.470 ,1,0,0.,4.8,0.,4.8,0.,4.8,0.,4.8
1980-11-14 06:19:57.270 ,1,0,1.,4.8,0.,4.8,0.,4.8,0.,4.8
1980-11-14 06:20:02.070 ,1,0,0.,4.8,0.,4.8,0.,4.8,0.,4.8
1980-11-14 06:20:06.870 ,1,0,0.,4.8,0.,4.8,0.,4.8,0.,4.8
1980-11-14 06:20:11.670 ,1,0,0.,4.8,0.,4.8,0.,4.8,0.,4.8
1980-11-14 06:20:16.470 ,1,0,0.,4.8,1.,4.8,0.,4.8,0.,4.8
1980-11-14 06:20:21.270 ,1,0,0.,4.8,0.,4.8,0.,4.8,0.,4.8
1980-11-14 06:20:26.070 ,1,0,0.,4.8,0.,4.8,0.,4.8,0.,4.8
1980-11-14 06:20:30.870 ,1,0,1.,4.8,0.,4.8,0.,4.8,0.,4.8
1980-11-14 06:20:35.670 ,0,0,1.,4.8,0.,4.8,0.,4.8,0.,4.8
1980-11-14 06:20:40.470 ,0,0,1.,4.8,0.,4.8,0.,4.8,0.,4.8
1980-11-14 06:20:45.270 ,0,0,0.,4.8,0.,4.8,0.,4.8,0.,4.8
1980-11-14 06:20:50.070 ,0,0,0.,4.8,0.,4.8,0.,4.8,0.,4.8
1980-11-14 06:20:54.870 ,0,0,0.,4.8,0.,4.8,0.,4.8,0.,4.8
1980-11-14 06:20:59.670 ,0,0,0.,4.8,0.,4.8,0.,4.8,0.,4.8
1980-11-14 06:21:04.470 ,0,0,0.,4.8,0.,4.8,0.,4.8,0.,4.8
1980-11-14 06:21:09.270 ,0,0,0.,4.8,0.,4.8,0.,4.8,0.,4.8
1980-11-14 06:21:14.070 ,0,0,0.,4.8,0.,4.8,0.,4.8,0.,4.8
1980-11-14 06:21:18.870 ,0,0,1.,4.8,0.,4.8,1.,4.8,0.,4.8
1980-11-14 06:21:23.670 ,0,0,0.,4.8,0.,4.8,0.,4.8,0.,4.8
1980-11-14 06:21:28.470 ,0,0,0.,4.8,0.,4.8,0.,4.8,0.,4.8
1980-11-14 06:21:33.270 ,0,0,0.,4.8,0.,4.8,0.,4.8,0.,4.8
1980-11-14 06:21:38.070 ,0,0,0.,4.8,0.,4.8,0.,4.8,0.,4.8
1980-11-14 06:21:42.870 ,0,0,1.,4.8,0.,4.8,0.,4.8,0.,4.8
1980-11-14 06:21:47.670 ,0,0,0.,4.8,0.,4.8,0.,4.8,0.,4.8
1980-11-14 06:21:52.470 ,0,0,1.,4.8,0.,4.8,0.,4.8,0.,4.8
1980-11-14 06:21:57.270 ,0,0,1.,4.8,0.,4.8,1.,4.8,0.,4.8
1980-11-14 06:22:02.070 ,0,0,0.,4.8,0.,4.8,0.,4.8,0.,4.8
1980-11-14 06:22:06.870 ,0,0,0.,4.8,0.,4.8,0.,4.8,0.,4.8
1980-11-14 06:22:11.670 ,1,0,0.,4.8,0.,4.8,0.,4.8,0.,4.8
1980-11-14 06:22:16.470 ,1,0,0.,4.8,0.,4.8,0.,4.8,0.,4.8
1980-11-14 06:22:21.270 ,1,0,0.,4.8,0.,4.8,0.,4.8,0.,4.8
1980-11-14 06:22:26.070 ,1,0,1.,4.8,0.,4.8,0.,4.8,0.,4.8
1980-11-14 06:22:30.870 ,1,0,0.,4.8,0.,4.8,0.,4.8,0.,4.8
1980-11-14 06:22:35.670 ,1,0,2.,4.8,0.,4.8,0.,4.8,0.,4.8
1980-11-14 06:22:40.470 ,1,0,1.,4.8,0.,4.8,0.,4.8,0.,4.8
1980-11-14 06:22:45.270 ,1,0,0.,4.8,1.,4.8,0.,4.8,0.,4.8
1980-11-14 06:22:50.070 ,1,0,1.,4.8,0.,4.8,0.,4.8,0.,4.8
1980-11-14 06:22:54.870 ,1,0,0.,4.8,0.,4.8,0.,4.8,0.,4.8
1980-11-14 06:22:59.670 ,2,0,1.,4.8,0.,4.8,0.,4.8,0.,4.8
1980-11-14 06:23:04.470 ,2,0,0.,4.8,0.,4.8,0.,4.8,0.,4.8
1980-11-14 06:23:09.270 ,2,0,0.,4.8,0.,4.8,0.,4.8,0.,4.8
1980-11-14 06:23:14.070 ,2,0,0.,4.8,0.,4.8,0.,4.8,0.,4.8
1980-11-14 06:23:18.870 ,2,0,1.,4.8,0.,4.8,0.,4.8,0.,4.8
1980-11-14 06:23:23.670 ,2,0,0.,4.8,0.,4.8,0.,4.8,0.,4.8
1980-11-14 06:23:28.470 ,2,0,2.,4.8,0.,4.8,0.,4.8,0.,4.8
1980-11-14 06:23:33.270 ,2,0,0.,4.8,0.,4.8,0.,4.8,0.,4.8
1980-11-14 06:23:38.070 ,2,0,1.,4.8,0.,4.8,0.,4.8,0.,4.8
1980-11-14 06:23:42.870 ,2,0,0.,4.8,0.,4.8,0.,4.8,0.,4.8
1980-11-14 06:23:47.670 ,3,0,0.,4.8,0.,4.8,0.,4.8,0.,4.8
1980-11-14 06:23:52.470 ,3,0,0.,4.8,0.,4.8,0.,4.8,0.,4.8
1980-11-14 06:23:57.270 ,3,0,0.,4.8,0.,4.8,0.,4.8,0.,4.8
1980-11-14 06:24:02.070 ,3,0,0.,4.8,0.,4.8,0.,4.8,0.,4.8
1980-11-14 06:24:06.870 ,3,0,0.,4.8,0.,4.8,0.,4.8,0.,4.8
1980-11-14 06:24:11.670 ,3,0,0.,4.8,0.,4.8,0.,4.8,0.,4.8
1980-11-14 06:24:16.470 ,3,0,1.,4.8,0.,4.8,0.,4.8,0.,4.8
1980-11-14 06:24:21.270 ,3,0,1.,4.8,0.,4.8,0.,4.8,0.,4.8
1980-11-14 06:24:26.070 ,3,0,0.,4.8,0.,4.8,0.,4.8,0.,4.8
1980-11-14 06:24:30.870 ,3,0,0.,4.8,0.,4.8,0.,4.8,0.,4.8
1980-11-14 06:24:35.670 ,4,0,0.,4.8,0.,4.8,0.,4.8,0.,4.8
1980-11-14 06:24:40.470 ,4,0,0.,4.8,0.,4.8,0.,4.8,0.,4.8
1980-11-14 06:24:45.270 ,4,0,0.,4.8,0.,4.8,0.,4.8,0.,4.8
1980-11-14 06:24:50.070 ,4,0,1.,4.8,0.,4.8,0.,4.8,0.,4.8
1980-11-14 06:24:54.870 ,4,0,0.,4.8,0.,4.8,1.,4.8,0.,4.8
1980-11-14 06:24:59.670 ,4,0,0.,4.8,0.,4.8,0.,4.8,0.,4.8
1980-11-14 06:25:04.470 ,4,0,0.,4.8,1.,4.8,0.,4.8,0.,4.8
1980-11-14 06:25:09.270 ,4,0,0.,4.8,0.,4.8,0.,4.8,0.,4.8
1980-11-14 06:25:14.070 ,4,0,0.,4.8,0.,4.8,0.,4.8,0.,4.8
1980-11-14 06:25:18.870 ,4,0,0.,4.8,0.,4.8,0.,4.8,0.,4.8
1980-11-14 06:25:23.670 ,5,0,1.,4.8,0.,4.8,0.,4.8,0.,4.8
1980-11-14 06:25:28.470 ,5,0,1.,4.8,0.,4.8,0.,4.8,0.,4.8
1980-11-14 06:25:33.270 ,5,0,0.,4.8,0.,4.8,0.,4.8,0.,4.8
1980-11-14 06:25:38.070 ,5,0,0.,4.8,0.,4.8,0.,4.8,0.,4.8
1980-11-14 06:25:42.870 ,5,0,0.,4.8,0.,4.8,0.,4.8,0.,4.8
1980-11-14 06:25:47.670 ,5,0,0.,4.8,0.,4.8,0.,4.8,0.,4.8
1980-11-14 06:25:52.470 ,5,0,0.,4.8,0.,4.8,0.,4.8,0.,4.8
1980-11-14 06:25:57.270 ,5,0,2.,4.8,1.,4.8,0.,4.8,0.,4.8
1980-11-14 06:26:02.070 ,5,0,1.,4.8,0.,4.8,0.,4.8,0.,4.8
1980-11-14 06:26:06.870 ,5,0,1.,4.8,0.,4.8,0.,4.8,0.,4.8
1980-11-14 06:26:11.670 ,6,0,1.,4.8,0.,4.8,1.,4.8,0.,4.8
1980-11-14 06:26:16.470 ,6,0,1.,4.8,0.,4.8,0.,4.8,0.,4.8
1980-11-14 06:26:21.270 ,6,0,1.,4.8,0.,4.8,0.,4.8,0.,4.8
1980-11-14 06:26:26.070 ,6,0,0.,4.8,1.,4.8,0.,4.8,0.,4.8
1980-11-14 06:26:30.870 ,6,0,1.,4.8,0.,4.8,0.,4.8,0.,4.8
1980-11-14 06:26:35.670 ,6,0,0.,4.8,0.,4.8,0.,4.8,0.,4.8
1980-11-14 06:26:40.470 ,6,0,2.,4.8,0.,4.8,0.,4.8,0.,4.8
1980-11-14 06:26:45.270 ,6,0,1.,4.8,0.,4.8,0.,4.8,0.,4.8
1980-11-14 06:26:50.070 ,6,0,1.,4.8,0.,4.8,0.,4.8,0.,4.8
1980-11-14 06:26:54.870 ,6,0,1.,4.8,0.,4.8,0.,4.8,0.,4.8
1980-11-14 06:26:59.670 ,7,0,1.,4.8,0.,4.8,0.,4.8,0.,4.8
1980-11-14 06:27:04.470 ,7,0,0.,4.8,0.,4.8,0.,4.8,0.,4.8
1980-11-14 06:27:09.270 ,7,0,0.,4.8,0.,4.8,1.,4.8,0.,4.8
1980-11-14 06:27:14.070 ,7,0,0.,4.8,0.,4.8,0.,4.8,0.,4.8
1980-11-14 06:27:18.870 ,7,0,0.,4.8,0.,4.8,0.,4.8,0.,4.8
1980-11-14 06:27:23.670 ,7,0,1.,4.8,0.,4.8,0.,4.8,0.,4.8
1980-11-14 06:27:28.470 ,7,0,0.,4.8,1.,4.8,1.,4.8,0.,4.8
1980-11-14 06:27:33.270 ,7,0,0.,4.8,0.,4.8,0.,4.8,0.,4.8
1980-11-14 06:27:38.070 ,7,0,0.,4.8,0.,4.8,0.,4.8,0.,4.8
1980-11-14 06:27:42.870 ,7,0,0.,4.8,0.,4.8,0.,4.8,0.,4.8
1980-11-14 06:27:47.670 ,7,0,0.,4.8,0.,4.8,0.,4.8,0.,4.8
1980-11-14 06:27:52.470 ,7,0,0.,4.8,0.,4.8,0.,4.8,0.,4.8
1980-11-14 06:27:57.270 ,7,0,1.,4.8,0.,4.8,0.,4.8,0.,4.8
1980-11-14 06:28:02.070 ,7,0,0.,4.8,0.,4.8,0.,4.8,0.,4.8
1980-11-14 06:28:06.870 ,7,0,0.,4.8,0.,4.8,1.,4.8,0.,4.8
1980-11-14 06:28:11.670 ,7,0,0.,4.8,0.,4.8,0.,4.8,0.,4.8
1980-11-14 06:28:16.470 ,7,0,0.,4.8,0.,4.8,1.,4.8,0.,4.8
1980-11-14 06:28:21.270 ,7,0,0.,4.8,0.,4.8,0.,4.8,0.,4.8
1980-11-14 06:28:26.070 ,7,0,0.,4.8,0.,4.8,0.,4.8,0.,4.8
1980-11-14 06:28:30.870 ,7,0,0.,4.8,0.,4.8,0.,4.8,0.,4.8
1980-11-14 06:28:35.670 ,6,0,0.,4.8,0.,4.8,0.,4.8,0.,4.8
1980-11-14 06:28:40.470 ,6,0,0.,4.8,1.,4.8,0.,4.8,0.,4.8
1980-11-14 06:28:45.270 ,6,0,1.,4.8,0.,4.8,0.,4.8,0.,4.8
1980-11-14 06:28:50.070 ,6,0,0.,4.8,0.,4.8,0.,4.8,0.,4.8
1980-11-14 06:28:54.870 ,6,0,0.,4.8,0.,4.8,0.,4.8,0.,4.8
1980-11-14 06:28:59.670 ,0,0,0.,4.8,0.,4.8,0.,4.8,0.,4.8
1980-11-14 06:29:04.470 ,0,0,0.,4.8,0.,4.8,0.,4.8,0.,4.8
1980-11-14 06:29:09.270 ,0,0,1.,4.8,0.,4.8,0.,4.8,0.,4.8
1980-11-14 06:29:14.070 ,0,0,1.,4.8,0.,4.8,0.,4.8,0.,4.8
1980-11-14 06:29:18.870 ,0,0,0.,4.8,0.,4.8,0.,4.8,0.,4.8
1980-11-14 07:28:48.270 ,0,0,,0,,0,,0,,0
1980-11-14 07:28:53.070 ,0,0,,0,,0,,0,,0
1980-11-14 07:28:57.870 ,0,0,,0,,0,,0,,0
1980-11-14 07:29:02.670 ,0,0,0.,4.8,0.,4.8,0.,4.8,0.,4.8
1980-11-14 07:29:07.470 ,0,0,1.,4.8,0.,4.8,0.,4.8,0.,4.8
1980-11-14 07:28:59.670 ,0,0,1.,4.8,1.,4.8,0.,4.8,0.,4.8
1980-11-14 07:29:04.470 ,0,0,0.,4.8,0.,4.8,0.,4.8,0.,4.8
1980-11-14 07:29:09.270 ,0,0,0.,4.8,0.,4.8,0.,4.8,0.,4.8
1980-11-14 07:29:14.070 ,0,0,0.,4.8,0.,4.8,0.,4.8,0.,4.8
1980-11-14 07:29:18.870 ,0,0,0.,4.8,0.,4.8,0.,4.8,0.,4.8
1980-11-14 07:29:23.670 ,5,0,0.,4.8,0.,4.8,0.,4.8,0.,4.8
1980-11-14 07:29:28.470 ,5,0,0.,4.8,0.,4.8,0.,4.8,0.,4.8
1980-11-14 07:29:33.270 ,5,0,1.,4.8,0.,4.8,0.,4.8,0.,4.8
1980-11-14 07:29:38.070 ,5,0,0.,4.8,0.,4.8,0.,4.8,0.,4.8
1980-11-14 07:29:42.870 ,5,0,1.,4.8,0.,4.8,0.,4.8,0.,4.8
1980-11-14 07:29:47.670 ,5,0,0.,4.8,0.,4.8,0.,4.8,0.,4.8
1980-11-14 07:29:52.470 ,5,0,0.,4.8,0.,4.8,1.,4.8,0.,4.8
1980-11-14 07:29:57.270 ,5,0,0.,4.8,0.,4.8,0.,4.8,0.,4.8
1980-11-14 07:30:02.070 ,5,0,0.,4.8,0.,4.8,1.,4.8,0.,4.8
1980-11-14 07:30:06.870 ,5,0,0.,4.8,0.,4.8,0.,4.8,0.,4.8
1980-11-14 07:30:11.670 ,6,0,0.,4.8,0.,4.8,0.,4.8,0.,4.8
1980-11-14 07:30:16.470 ,6,0,0.,4.8,0.,4.8,0.,4.8,0.,4.8
1980-11-14 07:30:21.270 ,6,0,0.,4.8,0.,4.8,0.,4.8,0.,4.8
1980-11-14 07:30:26.070 ,6,0,0.,4.8,0.,4.8,0.,4.8,0.,4.8
1980-11-14 07:30:30.870 ,6,0,0.,4.8,0.,4.8,0.,4.8,0.,4.8
1980-11-14 07:30:35.670 ,6,0,0.,4.8,0.,4.8,0.,4.8,0.,4.8
1980-11-14 07:30:40.470 ,6,0,1.,4.8,0.,4.8,0.,4.8,0.,4.8
1980-11-14 07:30:45.270 ,6,0,1.,4.8,0.,4.8,1.,4.8,0.,4.8
1980-11-14 07:30:50.070 ,6,0,0.,4.8,0.,4.8,1.,4.8,0.,4.8
1980-11-14 07:30:54.870 ,6,0,0.,4.8,0.,4.8,0.,4.8,0.,4.8
1980-11-14 07:30:59.670 ,7,0,0.,4.8,0.,4.8,0.,4.8,0.,4.8
1980-11-14 07:31:04.470 ,7,0,1.,4.8,0.,4.8,0.,4.8,0.,4.8
1980-11-14 07:31:09.270 ,7,0,0.,4.8,0.,4.8,0.,4.8,0.,4.8
1980-11-14 07:31:14.070 ,7,0,0.,4.8,0.,4.8,0.,4.8,0.,4.8
1980-11-14 07:31:18.870 ,7,0,0.,4.8,0.,4.8,0.,4.8,0.,4.8
1980-11-14 07:31:23.670 ,7,0,0.,4.8,0.,4.8,0.,4.8,0.,4.8
1980-11-14 07:31:28.470 ,7,0,0.,4.8,0.,4.8,0.,4.8,0.,4.8
1980-11-14 07:31:33.270 ,7,0,0.,4.8,0.,4.8,0.,4.8,0.,4.8
1980-11-14 07:31:38.070 ,7,0,0.,4.8,0.,4.8,0.,4.8,0.,4.8
1980-11-14 07:31:42.870 ,7,0,0.,4.8,0.,4.8,0.,4.8,0.,4.8
1980-11-14 07:31:47.670 ,7,0,0.,4.8,0.,4.8,0.,4.8,0.,4.8
1980-11-14 07:31:52.470 ,7,0,0.,4.8,0.,4.8,0.,4.8,0.,4.8
1980-11-14 07:31:57.270 ,7,0,0.,4.8,0.,4.8,0.,4.8,0.,4.8
1980-11-14 07:32:02.070 ,7,0,2.,4.8,0.,4.8,1.,4.8,0.,4.8
1980-11-14 07:32:06.870 ,7,0,0.,4.8,0.,4.8,0.,4.8,0.,4.8
1980-11-14 07:32:11.670 ,7,0,0.,4.8,0.,4.8,0.,4.8,0.,4.8
1980-11-14 07:32:16.470 ,7,0,0.,4.8,0.,4.8,1.,4.8,0.,4.8
1980-11-14 07:32:21.270 ,7,0,0.,4.8,0.,4.8,0.,4.8,0.,4.8